Year,Month,Day,Hour,Minute,Value (Times are PST for temperature in C)
2013,07,16,00,00,13.50
2013,07,16,00,01,13.50
2013,07,16,00,02,13.50
2013,07,16,00,03,13.50
2013,07,16,00,04,13.50
2013,07,16,00,05,13.50
2013,07,16,00,06,13.50
2013,07,16,00,07,13.50
2013,07,16,00,08,13.50
2013,07,16,00,09,13.50
2013,07,16,00,10,13.50
2013,07,16,00,11,13.40
2013,07,16,00,12,13.40
2013,07,16,00,13,13.40
2013,07,16,00,14,13.40
2013,07,16,00,15,13.40
2013,07,16,00,16,13.40
2013,07,16,00,17,13.30
2013,07,16,00,18,13.30
2013,07,16,00,19,13.30
2013,07,16,00,20,13.30
2013,07,16,00,21,13.30
2013,07,16,00,22,13.30
2013,07,16,00,23,13.30
2013,07,16,00,24,13.30
2013,07,16,00,25,13.30
2013,07,16,00,26,13.30
2013,07,16,00,27,13.30
2013,07,16,00,28,13.30
2013,07,16,00,29,13.30
2013,07,16,00,30,13.30
2013,07,16,00,31,13.30
2013,07,16,00,32,13.30
2013,07,16,00,33,13.30
2013,07,16,00,34,13.30
2013,07,16,00,35,13.30
2013,07,16,00,36,13.30
2013,07,16,00,37,13.30
2013,07,16,00,38,13.30
2013,07,16,00,39,13.30
2013,07,16,00,40,13.30
2013,07,16,00,41,13.30
2013,07,16,00,42,13.30
2013,07,16,00,43,13.30
2013,07,16,00,44,13.30
2013,07,16,00,45,13.30
2013,07,16,00,46,13.30
2013,07,16,00,47,13.30
2013,07,16,00,48,13.40
2013,07,16,00,49,13.40
2013,07,16,00,50,13.40
2013,07,16,00,51,13.40
2013,07,16,00,52,13.50
2013,07,16,00,53,13.50
2013,07,16,00,54,13.50
2013,07,16,00,55,13.50
2013,07,16,00,56,13.50
2013,07,16,00,57,13.50
2013,07,16,00,58,13.50
2013,07,16,00,59,13.50
2013,07,16,01,00,13.50
2013,07,16,01,01,13.50
2013,07,16,01,02,13.50
2013,07,16,01,03,13.40
2013,07,16,01,04,13.40
2013,07,16,01,05,13.40
2013,07,16,01,06,13.40
2013,07,16,01,07,13.40
2013,07,16,01,08,13.40
2013,07,16,01,09,13.40
2013,07,16,01,10,13.40
2013,07,16,01,11,13.40
2013,07,16,01,12,13.40
2013,07,16,01,13,13.40
2013,07,16,01,14,13.40
2013,07,16,01,15,13.40
2013,07,16,01,16,13.40
2013,07,16,01,17,13.40
2013,07,16,01,18,13.40
2013,07,16,01,19,13.30
2013,07,16,01,20,13.30
2013,07,16,01,21,13.30
2013,07,16,01,22,13.30
2013,07,16,01,23,13.30
2013,07,16,01,24,13.30
2013,07,16,01,25,13.30
2013,07,16,01,26,13.30
2013,07,16,01,27,13.30
2013,07,16,01,28,13.30
2013,07,16,01,29,13.30
2013,07,16,01,30,13.30
2013,07,16,01,31,13.30
2013,07,16,01,32,13.20
2013,07,16,01,33,13.20
2013,07,16,01,34,13.20
2013,07,16,01,35,13.20
2013,07,16,01,36,13.20
2013,07,16,01,37,13.20
2013,07,16,01,38,13.10
2013,07,16,01,39,13.10
2013,07,16,01,40,13.10
2013,07,16,01,41,13.10
2013,07,16,01,42,13.10
2013,07,16,01,43,13.00
2013,07,16,01,44,13.00
2013,07,16,01,45,13.00
2013,07,16,01,46,13.00
2013,07,16,01,47,13.00
2013,07,16,01,48,12.90
2013,07,16,01,49,12.90
2013,07,16,01,50,12.90
2013,07,16,01,51,12.90
2013,07,16,01,52,12.90
2013,07,16,01,53,12.90
2013,07,16,01,54,13.00
2013,07,16,01,55,13.00
2013,07,16,01,56,13.00
2013,07,16,01,57,13.00
2013,07,16,01,58,13.00
2013,07,16,01,59,13.00
2013,07,16,02,00,13.00
2013,07,16,02,01,13.00
2013,07,16,02,02,12.90
2013,07,16,02,03,12.90
2013,07,16,02,04,13.00
2013,07,16,02,05,13.00
2013,07,16,02,06,13.00
2013,07,16,02,07,12.90
2013,07,16,02,08,12.90
2013,07,16,02,09,12.90
2013,07,16,02,10,12.90
2013,07,16,02,11,13.00
2013,07,16,02,12,13.00
2013,07,16,02,13,12.90
2013,07,16,02,14,12.90
2013,07,16,02,15,12.90
2013,07,16,02,16,12.90
2013,07,16,02,17,12.80
2013,07,16,02,18,12.80
2013,07,16,02,19,12.80
2013,07,16,02,20,12.80
2013,07,16,02,21,12.80
2013,07,16,02,22,12.70
2013,07,16,02,23,12.70
2013,07,16,02,24,12.70
2013,07,16,02,25,12.70
2013,07,16,02,26,12.70
2013,07,16,02,27,12.70
2013,07,16,02,28,12.70
2013,07,16,02,29,12.70
2013,07,16,02,30,12.70
2013,07,16,02,31,12.70
2013,07,16,02,32,12.70
2013,07,16,02,33,12.70
2013,07,16,02,34,12.60
2013,07,16,02,35,12.60
2013,07,16,02,36,12.60
2013,07,16,02,37,12.60
2013,07,16,02,38,12.60
2013,07,16,02,39,12.50
2013,07,16,02,40,12.50
2013,07,16,02,41,12.50
2013,07,16,02,42,12.50
2013,07,16,02,43,12.50
2013,07,16,02,44,12.50
2013,07,16,02,45,12.50
2013,07,16,02,46,12.50
2013,07,16,02,47,12.50
2013,07,16,02,48,12.50
2013,07,16,02,49,12.50
2013,07,16,02,50,12.50
2013,07,16,02,51,12.50
2013,07,16,02,52,12.50
2013,07,16,02,53,12.50
2013,07,16,02,54,12.50
2013,07,16,02,55,12.40
2013,07,16,02,56,12.40
2013,07,16,02,57,12.40
2013,07,16,02,58,12.40
2013,07,16,02,59,12.40
2013,07,16,03,00,12.50
2013,07,16,03,01,12.50
2013,07,16,03,02,12.50
2013,07,16,03,03,12.50
2013,07,16,03,04,12.40
2013,07,16,03,05,12.40
2013,07,16,03,06,12.40
2013,07,16,03,07,12.40
2013,07,16,03,08,12.40
2013,07,16,03,09,12.40
2013,07,16,03,10,12.50
2013,07,16,03,11,12.60
2013,07,16,03,12,12.70
2013,07,16,03,13,12.70
2013,07,16,03,14,12.80
2013,07,16,03,15,12.80
2013,07,16,03,16,12.90
2013,07,16,03,17,13.00
2013,07,16,03,18,13.00
2013,07,16,03,19,13.00
2013,07,16,03,20,13.10
2013,07,16,03,21,13.10
2013,07,16,03,22,13.20
2013,07,16,03,23,13.20
2013,07,16,03,24,13.10
2013,07,16,03,25,13.00
2013,07,16,03,26,13.00
2013,07,16,03,27,12.90
2013,07,16,03,28,12.90
2013,07,16,03,29,12.90
2013,07,16,03,30,12.90
2013,07,16,03,31,12.90
2013,07,16,03,32,12.80
2013,07,16,03,33,12.80
2013,07,16,03,34,12.80
2013,07,16,03,35,12.80
2013,07,16,03,36,12.80
2013,07,16,03,37,12.90
2013,07,16,03,38,13.00
2013,07,16,03,39,13.10
2013,07,16,03,40,13.20
2013,07,16,03,41,13.30
2013,07,16,03,42,13.30
2013,07,16,03,43,13.30
2013,07,16,03,44,13.30
2013,07,16,03,45,13.30
2013,07,16,03,46,13.40
2013,07,16,03,47,13.50
2013,07,16,03,48,13.50
2013,07,16,03,49,13.50
2013,07,16,03,50,13.50
2013,07,16,03,51,13.50
2013,07,16,03,52,13.40
2013,07,16,03,53,13.40
2013,07,16,03,54,13.30
2013,07,16,03,55,13.30
2013,07,16,03,56,13.30
2013,07,16,03,57,13.20
2013,07,16,03,58,13.20
2013,07,16,03,59,13.20
2013,07,16,04,00,13.20
2013,07,16,04,01,13.10
2013,07,16,04,02,13.10
2013,07,16,04,03,13.00
2013,07,16,04,04,13.00
2013,07,16,04,05,13.00
2013,07,16,04,06,12.90
2013,07,16,04,07,12.90
2013,07,16,04,08,12.90
2013,07,16,04,09,12.90
2013,07,16,04,10,12.90
2013,07,16,04,11,12.90
2013,07,16,04,12,12.80
2013,07,16,04,13,12.80
2013,07,16,04,14,12.80
2013,07,16,04,15,12.80
2013,07,16,04,16,12.80
2013,07,16,04,17,12.80
2013,07,16,04,18,12.80
2013,07,16,04,19,12.80
2013,07,16,04,20,12.80
2013,07,16,04,21,12.80
2013,07,16,04,22,12.80
2013,07,16,04,23,12.80
2013,07,16,04,24,12.90
2013,07,16,04,25,12.90
2013,07,16,04,26,13.00
2013,07,16,04,27,13.00
2013,07,16,04,28,13.00
2013,07,16,04,29,13.10
2013,07,16,04,30,13.10
2013,07,16,04,31,13.10
2013,07,16,04,32,13.10
2013,07,16,04,33,13.10
2013,07,16,04,34,13.10
2013,07,16,04,35,13.10
2013,07,16,04,36,13.20
2013,07,16,04,37,13.20
2013,07,16,04,38,13.10
2013,07,16,04,39,13.10
2013,07,16,04,40,13.00
2013,07,16,04,41,13.00
2013,07,16,04,42,13.00
2013,07,16,04,43,13.00
2013,07,16,04,44,13.00
2013,07,16,04,45,13.00
2013,07,16,04,46,13.00
2013,07,16,04,47,13.00
2013,07,16,04,48,12.90
2013,07,16,04,49,12.90
2013,07,16,04,50,12.90
2013,07,16,04,51,12.90
2013,07,16,04,52,12.90
2013,07,16,04,53,12.90
2013,07,16,04,54,12.90
2013,07,16,04,55,13.00
2013,07,16,04,56,13.00
2013,07,16,04,57,13.00
2013,07,16,04,58,13.00
2013,07,16,04,59,13.00
2013,07,16,05,00,13.00
2013,07,16,05,01,13.00
2013,07,16,05,02,13.00
2013,07,16,05,03,13.20
2013,07,16,05,04,13.20
2013,07,16,05,05,13.30
2013,07,16,05,06,13.30
2013,07,16,05,07,13.30
2013,07,16,05,08,13.30
2013,07,16,05,09,13.30
2013,07,16,05,10,13.30
2013,07,16,05,11,13.30
2013,07,16,05,12,13.30
2013,07,16,05,13,13.30
2013,07,16,05,14,13.30
2013,07,16,05,15,13.30
2013,07,16,05,16,13.30
2013,07,16,05,17,13.30
2013,07,16,05,18,13.30
2013,07,16,05,19,13.30
2013,07,16,05,20,13.30
2013,07,16,05,21,13.30
2013,07,16,05,22,13.30
2013,07,16,05,23,13.30
2013,07,16,05,24,13.30
2013,07,16,05,25,13.30
2013,07,16,05,26,13.30
2013,07,16,05,27,13.30
2013,07,16,05,28,13.30
2013,07,16,05,29,13.30
2013,07,16,05,30,13.30
2013,07,16,05,31,13.30
2013,07,16,05,32,13.30
2013,07,16,05,33,13.20
2013,07,16,05,34,13.20
2013,07,16,05,35,13.20
2013,07,16,05,36,13.20
2013,07,16,05,37,13.20
2013,07,16,05,38,13.20
2013,07,16,05,39,13.20
2013,07,16,05,40,13.20
2013,07,16,05,41,13.20
2013,07,16,05,42,13.20
2013,07,16,05,43,13.20
2013,07,16,05,44,13.20
2013,07,16,05,45,13.20
2013,07,16,05,46,13.20
2013,07,16,05,47,13.20
2013,07,16,05,48,13.20
2013,07,16,05,49,13.20
2013,07,16,05,50,13.20
2013,07,16,05,51,13.10
2013,07,16,05,52,13.10
2013,07,16,05,53,13.10
2013,07,16,05,54,13.10
2013,07,16,05,55,13.10
2013,07,16,05,56,13.10
2013,07,16,05,57,13.20
2013,07,16,05,58,13.20
2013,07,16,05,59,13.30
2013,07,16,06,00,13.30
2013,07,16,06,01,13.30
2013,07,16,06,02,13.40
2013,07,16,06,03,13.50
2013,07,16,06,04,13.60
2013,07,16,06,05,13.70
2013,07,16,06,06,13.70
2013,07,16,06,07,13.80
2013,07,16,06,08,13.90
2013,07,16,06,09,13.90
2013,07,16,06,10,14.00
2013,07,16,06,11,14.00
2013,07,16,06,12,14.10
2013,07,16,06,13,14.10
2013,07,16,06,14,14.20
2013,07,16,06,15,14.20
2013,07,16,06,16,14.20
2013,07,16,06,17,14.30
2013,07,16,06,18,14.30
2013,07,16,06,19,14.30
2013,07,16,06,20,14.30
2013,07,16,06,21,14.30
2013,07,16,06,22,14.30
2013,07,16,06,23,14.20
2013,07,16,06,24,14.20
2013,07,16,06,25,14.20
2013,07,16,06,26,14.20
2013,07,16,06,27,14.20
2013,07,16,06,28,14.30
2013,07,16,06,29,14.50
2013,07,16,06,30,14.60
2013,07,16,06,31,14.80
2013,07,16,06,32,14.90
2013,07,16,06,33,15.10
2013,07,16,06,34,15.20
2013,07,16,06,35,15.40
2013,07,16,06,36,15.40
2013,07,16,06,37,15.50
2013,07,16,06,38,15.50
2013,07,16,06,39,15.40
2013,07,16,06,40,15.40
2013,07,16,06,41,15.30
2013,07,16,06,42,15.30
2013,07,16,06,43,15.30
2013,07,16,06,44,15.30
2013,07,16,06,45,15.30
2013,07,16,06,46,15.30
2013,07,16,06,47,15.30
2013,07,16,06,48,15.20
2013,07,16,06,49,15.20
2013,07,16,06,50,15.20
2013,07,16,06,51,15.10
2013,07,16,06,52,15.10
2013,07,16,06,53,15.10
2013,07,16,06,54,15.10
2013,07,16,06,55,15.10
2013,07,16,06,56,15.20
2013,07,16,06,57,15.20
2013,07,16,06,58,15.30
2013,07,16,06,59,15.30
2013,07,16,07,00,15.30
2013,07,16,07,01,15.40
2013,07,16,07,02,15.50
2013,07,16,07,03,15.50
2013,07,16,07,04,15.60
2013,07,16,07,05,15.70
2013,07,16,07,06,15.70
2013,07,16,07,07,15.80
2013,07,16,07,08,15.90
2013,07,16,07,09,16.00
2013,07,16,07,10,16.20
2013,07,16,07,11,16.30
2013,07,16,07,12,16.40
2013,07,16,07,13,16.60
2013,07,16,07,14,16.70
2013,07,16,07,15,16.80
2013,07,16,07,16,16.90
2013,07,16,07,17,17.00
2013,07,16,07,18,17.00
2013,07,16,07,19,17.10
2013,07,16,07,20,17.10
2013,07,16,07,21,17.10
2013,07,16,07,22,17.10
2013,07,16,07,23,17.10
2013,07,16,07,24,17.10
2013,07,16,07,25,17.20
2013,07,16,07,26,17.20
2013,07,16,07,27,17.30
2013,07,16,07,28,17.30
2013,07,16,07,29,17.30
2013,07,16,07,30,17.40
2013,07,16,07,31,17.50
2013,07,16,07,32,17.60
2013,07,16,07,33,17.60
2013,07,16,07,34,17.70
2013,07,16,07,35,17.80
2013,07,16,07,36,17.90
2013,07,16,07,37,17.90
2013,07,16,07,38,17.90
2013,07,16,07,39,18.00
2013,07,16,07,40,18.10
2013,07,16,07,41,18.20
2013,07,16,07,42,18.20
2013,07,16,07,43,18.40
2013,07,16,07,44,18.50
2013,07,16,07,45,18.60
2013,07,16,07,46,18.60
2013,07,16,07,47,18.60
2013,07,16,07,48,18.70
2013,07,16,07,49,18.70
2013,07,16,07,50,18.70
2013,07,16,07,51,18.70
2013,07,16,07,52,18.70
2013,07,16,07,53,18.70
2013,07,16,07,54,18.70
2013,07,16,07,55,18.70
2013,07,16,07,56,18.70
2013,07,16,07,57,18.70
2013,07,16,07,58,18.90
2013,07,16,07,59,19.10
2013,07,16,08,00,19.20
2013,07,16,08,01,19.30
2013,07,16,08,02,19.40
2013,07,16,08,03,19.50
2013,07,16,08,04,19.70
2013,07,16,08,05,19.80
2013,07,16,08,06,19.90
2013,07,16,08,07,19.90
2013,07,16,08,08,19.90
2013,07,16,08,09,19.90
2013,07,16,08,10,20.00
2013,07,16,08,11,20.10
2013,07,16,08,12,20.20
2013,07,16,08,13,20.20
2013,07,16,08,14,20.20
2013,07,16,08,15,20.20
2013,07,16,08,16,20.20
2013,07,16,08,17,20.30
2013,07,16,08,18,20.30
2013,07,16,08,19,20.30
2013,07,16,08,20,20.40
2013,07,16,08,21,20.40
2013,07,16,08,22,20.40
2013,07,16,08,23,20.30
2013,07,16,08,24,20.30
2013,07,16,08,25,20.20
2013,07,16,08,26,20.20
2013,07,16,08,27,20.20
2013,07,16,08,28,20.20
2013,07,16,08,29,20.30
2013,07,16,08,30,20.40
2013,07,16,08,31,20.50
2013,07,16,08,32,20.60
2013,07,16,08,33,20.70
2013,07,16,08,34,20.70
2013,07,16,08,35,20.80
2013,07,16,08,36,21.00
2013,07,16,08,37,21.00
2013,07,16,08,38,21.10
2013,07,16,08,39,21.20
2013,07,16,08,40,21.20
2013,07,16,08,41,21.20
2013,07,16,08,42,21.10
2013,07,16,08,43,21.20
2013,07,16,08,44,21.20
2013,07,16,08,45,21.20
2013,07,16,08,46,21.20
2013,07,16,08,47,21.20
2013,07,16,08,48,21.30
2013,07,16,08,49,21.30
2013,07,16,08,50,21.30
2013,07,16,08,51,21.30
2013,07,16,08,52,21.30
2013,07,16,08,53,21.40
2013,07,16,08,54,21.60
2013,07,16,08,55,21.60
2013,07,16,08,56,21.70
2013,07,16,08,57,21.90
2013,07,16,08,58,22.00
2013,07,16,08,59,22.10
2013,07,16,09,00,22.20
2013,07,16,09,01,22.30
2013,07,16,09,02,22.40
2013,07,16,09,03,22.50
2013,07,16,09,04,22.50
2013,07,16,09,05,22.60
2013,07,16,09,06,22.60
2013,07,16,09,07,22.70
2013,07,16,09,08,22.70
2013,07,16,09,09,22.80
2013,07,16,09,10,22.90
2013,07,16,09,11,23.00
2013,07,16,09,12,23.10
2013,07,16,09,13,23.20
2013,07,16,09,14,23.30
2013,07,16,09,15,23.40
2013,07,16,09,16,23.50
2013,07,16,09,17,23.60
2013,07,16,09,18,23.70
2013,07,16,09,19,23.70
2013,07,16,09,20,23.70
2013,07,16,09,21,23.70
2013,07,16,09,22,23.70
2013,07,16,09,23,23.70
2013,07,16,09,24,23.70
2013,07,16,09,25,23.70
2013,07,16,09,26,23.80
2013,07,16,09,27,23.80
2013,07,16,09,28,23.80
2013,07,16,09,29,23.70
2013,07,16,09,30,23.70
2013,07,16,09,31,23.70
2013,07,16,09,32,23.60
2013,07,16,09,33,23.60
2013,07,16,09,34,23.60
2013,07,16,09,35,23.50
2013,07,16,09,36,23.40
2013,07,16,09,37,23.30
2013,07,16,09,38,23.30
2013,07,16,09,39,23.20
2013,07,16,09,40,23.10
2013,07,16,09,41,23.10
2013,07,16,09,42,23.10
2013,07,16,09,43,23.00
2013,07,16,09,44,22.90
2013,07,16,09,45,22.90
2013,07,16,09,46,22.90
2013,07,16,09,47,22.90
2013,07,16,09,48,22.90
2013,07,16,09,49,22.90
2013,07,16,09,50,23.10
2013,07,16,09,51,23.20
2013,07,16,09,52,23.20
2013,07,16,09,53,23.30
2013,07,16,09,54,23.30
2013,07,16,09,55,23.40
2013,07,16,09,56,23.40
2013,07,16,09,57,23.50
2013,07,16,09,58,23.70
2013,07,16,09,59,23.80
2013,07,16,10,00,24.20
2013,07,16,10,01,24.50
2013,07,16,10,02,24.80
2013,07,16,10,03,25.10
2013,07,16,10,04,25.30
2013,07,16,10,05,25.40
2013,07,16,10,06,25.50
2013,07,16,10,07,25.60
2013,07,16,10,08,25.70
2013,07,16,10,09,25.80
2013,07,16,10,10,25.90
2013,07,16,10,11,25.90
2013,07,16,10,12,26.00
2013,07,16,10,13,26.10
2013,07,16,10,14,26.10
2013,07,16,10,15,26.20
2013,07,16,10,16,26.20
2013,07,16,10,17,26.20
2013,07,16,10,18,26.20
2013,07,16,10,19,26.20
2013,07,16,10,20,26.20
2013,07,16,10,21,26.20
2013,07,16,10,22,26.20
2013,07,16,10,23,26.20
2013,07,16,10,24,26.20
2013,07,16,10,25,26.20
2013,07,16,10,26,26.30
2013,07,16,10,27,26.30
2013,07,16,10,28,26.30
2013,07,16,10,29,26.40
2013,07,16,10,30,26.40
2013,07,16,10,31,26.40
2013,07,16,10,32,26.40
2013,07,16,10,33,26.40
2013,07,16,10,34,26.50
2013,07,16,10,35,26.40
2013,07,16,10,36,26.50
2013,07,16,10,37,26.60
2013,07,16,10,38,26.70
2013,07,16,10,39,26.80
2013,07,16,10,40,26.80
2013,07,16,10,41,26.90
2013,07,16,10,42,26.90
2013,07,16,10,43,26.90
2013,07,16,10,44,27.00
2013,07,16,10,45,27.10
2013,07,16,10,46,27.10
2013,07,16,10,47,27.20
2013,07,16,10,48,27.20
2013,07,16,10,49,27.20
2013,07,16,10,50,27.20
2013,07,16,10,51,27.20
2013,07,16,10,52,27.20
2013,07,16,10,53,27.20
2013,07,16,10,54,27.20
2013,07,16,10,55,27.20
2013,07,16,10,56,27.30
2013,07,16,10,57,27.30
2013,07,16,10,58,27.30
2013,07,16,10,59,27.40
2013,07,16,11,00,27.50
2013,07,16,11,01,27.60
2013,07,16,11,02,27.60
2013,07,16,11,03,27.60
2013,07,16,11,04,27.70
2013,07,16,11,05,27.70
2013,07,16,11,06,27.80
2013,07,16,11,07,27.80
2013,07,16,11,08,27.80
2013,07,16,11,09,27.80
2013,07,16,11,10,27.80
2013,07,16,11,11,27.80
2013,07,16,11,12,27.80
2013,07,16,11,13,27.80
2013,07,16,11,14,27.80
2013,07,16,11,15,27.80
2013,07,16,11,16,27.90
2013,07,16,11,17,27.90
2013,07,16,11,18,28.00
2013,07,16,11,19,28.10
2013,07,16,11,20,28.00
2013,07,16,11,21,27.70
2013,07,16,11,22,27.50
2013,07,16,11,23,27.30
2013,07,16,11,24,27.20
2013,07,16,11,25,27.20
2013,07,16,11,26,27.40
2013,07,16,11,27,27.50
2013,07,16,11,28,27.60
2013,07,16,11,29,27.70
2013,07,16,11,30,27.70
2013,07,16,11,31,27.70
2013,07,16,11,32,27.40
2013,07,16,11,33,27.20
2013,07,16,11,34,27.20
2013,07,16,11,35,27.20
2013,07,16,11,36,27.20
2013,07,16,11,37,27.30
2013,07,16,11,38,27.50
2013,07,16,11,39,27.70
2013,07,16,11,40,27.90
2013,07,16,11,41,28.00
2013,07,16,11,42,28.00
2013,07,16,11,43,28.10
2013,07,16,11,44,28.10
2013,07,16,11,45,28.10
2013,07,16,11,46,28.10
2013,07,16,11,47,28.30
2013,07,16,11,48,28.50
2013,07,16,11,49,28.60
2013,07,16,11,50,28.60
2013,07,16,11,51,28.70
2013,07,16,11,52,28.60
2013,07,16,11,53,28.00
2013,07,16,11,54,27.10
2013,07,16,11,55,26.50
2013,07,16,11,56,25.90
2013,07,16,11,57,25.40
2013,07,16,11,58,24.90
2013,07,16,11,59,24.60
2013,07,16,12,00,24.30
2013,07,16,12,01,24.10
2013,07,16,12,02,24.00
2013,07,16,12,03,23.80
2013,07,16,12,04,23.70
2013,07,16,12,05,23.70
2013,07,16,12,06,23.70
2013,07,16,12,07,23.80
2013,07,16,12,08,23.80
2013,07,16,12,09,23.80
2013,07,16,12,10,24.00
2013,07,16,12,11,24.20
2013,07,16,12,12,24.40
2013,07,16,12,13,24.60
2013,07,16,12,14,24.70
2013,07,16,12,15,24.80
2013,07,16,12,16,25.10
2013,07,16,12,17,25.10
2013,07,16,12,18,25.20
2013,07,16,12,19,25.20
2013,07,16,12,20,25.20
2013,07,16,12,21,25.20
2013,07,16,12,22,25.10
2013,07,16,12,23,24.90
2013,07,16,12,24,24.70
2013,07,16,12,25,24.60
2013,07,16,12,26,24.40
2013,07,16,12,27,24.30
2013,07,16,12,28,24.10
2013,07,16,12,29,24.10
2013,07,16,12,30,23.90
2013,07,16,12,31,23.60
2013,07,16,12,32,23.20
2013,07,16,12,33,22.90
2013,07,16,12,34,22.60
2013,07,16,12,35,22.50
2013,07,16,12,36,22.50
2013,07,16,12,37,22.50
2013,07,16,12,38,22.50
2013,07,16,12,39,22.50
2013,07,16,12,40,22.50
2013,07,16,12,41,22.60
2013,07,16,12,42,22.70
2013,07,16,12,43,22.90
2013,07,16,12,44,23.30
2013,07,16,12,45,23.60
2013,07,16,12,46,23.60
2013,07,16,12,47,23.60
2013,07,16,12,48,23.40
2013,07,16,12,49,23.20
2013,07,16,12,50,23.10
2013,07,16,12,51,23.10
2013,07,16,12,52,23.20
2013,07,16,12,53,23.40
2013,07,16,12,54,23.60
2013,07,16,12,55,23.80
2013,07,16,12,56,24.10
2013,07,16,12,57,24.40
2013,07,16,12,58,24.60
2013,07,16,12,59,24.80
2013,07,16,13,00,25.00
2013,07,16,13,01,25.30
2013,07,16,13,02,25.60
2013,07,16,13,03,25.80
2013,07,16,13,04,26.00
2013,07,16,13,05,26.00
2013,07,16,13,06,26.10
2013,07,16,13,07,26.00
2013,07,16,13,08,26.00
2013,07,16,13,09,26.00
2013,07,16,13,10,26.10
2013,07,16,13,11,26.20
2013,07,16,13,12,26.20
2013,07,16,13,13,26.30
2013,07,16,13,14,26.40
2013,07,16,13,15,26.60
2013,07,16,13,16,26.70
2013,07,16,13,17,26.80
2013,07,16,13,18,26.90
2013,07,16,13,19,27.10
2013,07,16,13,20,27.20
2013,07,16,13,21,27.30
2013,07,16,13,22,27.30
2013,07,16,13,23,27.30
2013,07,16,13,24,27.40
2013,07,16,13,25,27.60
2013,07,16,13,26,27.60
2013,07,16,13,27,27.50
2013,07,16,13,28,27.40
2013,07,16,13,29,27.30
2013,07,16,13,30,27.20
2013,07,16,13,31,27.10
2013,07,16,13,32,27.00
2013,07,16,13,33,26.80
2013,07,16,13,34,26.60
2013,07,16,13,35,26.50
2013,07,16,13,36,26.30
2013,07,16,13,37,26.00
2013,07,16,13,38,25.90
2013,07,16,13,39,25.80
2013,07,16,13,40,25.70
2013,07,16,13,41,25.60
2013,07,16,13,42,25.50
2013,07,16,13,43,25.40
2013,07,16,13,44,25.20
2013,07,16,13,45,25.20
2013,07,16,13,46,25.20
2013,07,16,13,47,25.10
2013,07,16,13,48,25.10
2013,07,16,13,49,25.10
2013,07,16,13,50,24.90
2013,07,16,13,51,24.80
2013,07,16,13,52,24.70
2013,07,16,13,53,24.50
2013,07,16,13,54,24.50
2013,07,16,13,55,24.40
2013,07,16,13,56,24.30
2013,07,16,13,57,24.30
2013,07,16,13,58,24.40
2013,07,16,13,59,24.40
2013,07,16,14,00,24.30
2013,07,16,14,01,24.40
2013,07,16,14,02,24.40
2013,07,16,14,03,24.50
2013,07,16,14,04,24.60
2013,07,16,14,05,24.70
2013,07,16,14,06,24.80
2013,07,16,14,07,24.90
2013,07,16,14,08,25.00
2013,07,16,14,09,25.10
2013,07,16,14,10,25.20
2013,07,16,14,11,25.40
2013,07,16,14,12,25.50
2013,07,16,14,13,25.70
2013,07,16,14,14,25.90
2013,07,16,14,15,25.90
2013,07,16,14,16,25.90
2013,07,16,14,17,25.90
2013,07,16,14,18,25.80
2013,07,16,14,19,25.60
2013,07,16,14,20,25.50
2013,07,16,14,21,25.50
2013,07,16,14,22,25.40
2013,07,16,14,23,25.40
2013,07,16,14,24,25.30
2013,07,16,14,25,25.20
2013,07,16,14,26,25.10
2013,07,16,14,27,25.10
2013,07,16,14,28,25.10
2013,07,16,14,29,25.10
2013,07,16,14,30,25.10
2013,07,16,14,31,25.00
2013,07,16,14,32,25.00
2013,07,16,14,33,25.00
2013,07,16,14,34,25.00
2013,07,16,14,35,24.90
2013,07,16,14,36,24.90
2013,07,16,14,37,24.90
2013,07,16,14,38,24.80
2013,07,16,14,39,24.70
2013,07,16,14,40,24.60
2013,07,16,14,41,24.60
2013,07,16,14,42,24.60
2013,07,16,14,43,24.60
2013,07,16,14,44,24.50
2013,07,16,14,45,24.50
2013,07,16,14,46,24.50
2013,07,16,14,47,24.50
2013,07,16,14,48,24.40
2013,07,16,14,49,24.40
2013,07,16,14,50,24.40
2013,07,16,14,51,24.40
2013,07,16,14,52,24.40
2013,07,16,14,53,24.40
2013,07,16,14,54,24.40
2013,07,16,14,55,24.40
2013,07,16,14,56,24.50
2013,07,16,14,57,24.50
2013,07,16,14,58,24.50
2013,07,16,14,59,24.50
2013,07,16,15,00,24.50
2013,07,16,15,01,24.50
2013,07,16,15,02,24.50
2013,07,16,15,03,24.40
2013,07,16,15,04,24.40
2013,07,16,15,05,24.30
2013,07,16,15,06,24.30
2013,07,16,15,07,24.30
2013,07,16,15,08,24.30
2013,07,16,15,09,24.30
2013,07,16,15,10,24.30
2013,07,16,15,11,24.40
2013,07,16,15,12,24.40
2013,07,16,15,13,24.40
2013,07,16,15,14,24.40
2013,07,16,15,15,24.50
2013,07,16,15,16,24.50
2013,07,16,15,17,24.60
2013,07,16,15,18,24.70
2013,07,16,15,19,24.80
2013,07,16,15,20,24.90
2013,07,16,15,21,25.10
2013,07,16,15,22,25.30
2013,07,16,15,23,25.40
2013,07,16,15,24,25.40
2013,07,16,15,25,25.40
2013,07,16,15,26,25.50
2013,07,16,15,27,25.50
2013,07,16,15,28,25.50
2013,07,16,15,29,25.50
2013,07,16,15,30,25.50
2013,07,16,15,31,25.50
2013,07,16,15,32,25.40
2013,07,16,15,33,25.40
2013,07,16,15,34,25.40
2013,07,16,15,35,25.30
2013,07,16,15,36,25.30
2013,07,16,15,37,25.30
2013,07,16,15,38,25.30
2013,07,16,15,39,25.40
2013,07,16,15,40,25.30
2013,07,16,15,41,25.20
2013,07,16,15,42,25.20
2013,07,16,15,43,25.10
2013,07,16,15,44,25.10
2013,07,16,15,45,25.10
2013,07,16,15,46,25.20
2013,07,16,15,47,25.20
2013,07,16,15,48,25.30
2013,07,16,15,49,25.30
2013,07,16,15,50,25.30
2013,07,16,15,51,25.30
2013,07,16,15,52,25.30
2013,07,16,15,53,25.30
2013,07,16,15,54,25.20
2013,07,16,15,55,25.20
2013,07,16,15,56,25.10
2013,07,16,15,57,25.10
2013,07,16,15,58,25.10
2013,07,16,15,59,25.10
2013,07,16,16,00,25.10
2013,07,16,16,01,25.10
2013,07,16,16,02,25.10
2013,07,16,16,03,25.00
2013,07,16,16,04,25.00
2013,07,16,16,05,25.00
2013,07,16,16,06,25.10
2013,07,16,16,07,25.10
2013,07,16,16,08,25.10
2013,07,16,16,09,25.10
2013,07,16,16,10,25.00
2013,07,16,16,11,25.00
2013,07,16,16,12,25.00
2013,07,16,16,13,25.00
2013,07,16,16,14,24.90
2013,07,16,16,15,25.00
2013,07,16,16,16,25.00
2013,07,16,16,17,25.00
2013,07,16,16,18,25.00
2013,07,16,16,19,25.10
2013,07,16,16,20,25.10
2013,07,16,16,21,25.20
2013,07,16,16,22,25.20
2013,07,16,16,23,25.30
2013,07,16,16,24,25.30
2013,07,16,16,25,25.30
2013,07,16,16,26,25.30
2013,07,16,16,27,25.40
2013,07,16,16,28,25.40
2013,07,16,16,29,25.40
2013,07,16,16,30,25.40
2013,07,16,16,31,25.40
2013,07,16,16,32,25.40
2013,07,16,16,33,25.40
2013,07,16,16,34,25.40
2013,07,16,16,35,25.40
2013,07,16,16,36,25.40
2013,07,16,16,37,25.40
2013,07,16,16,38,25.30
2013,07,16,16,39,25.20
2013,07,16,16,40,25.20
2013,07,16,16,41,25.10
2013,07,16,16,42,25.00
2013,07,16,16,43,24.90
2013,07,16,16,44,24.70
2013,07,16,16,45,24.50
2013,07,16,16,46,24.30
2013,07,16,16,47,24.20
2013,07,16,16,48,24.10
2013,07,16,16,49,24.10
2013,07,16,16,50,24.10
2013,07,16,16,51,24.00
2013,07,16,16,52,23.90
2013,07,16,16,53,23.70
2013,07,16,16,54,23.50
2013,07,16,16,55,23.30
2013,07,16,16,56,23.30
2013,07,16,16,57,23.10
2013,07,16,16,58,23.10
2013,07,16,16,59,22.90
2013,07,16,17,00,22.90
2013,07,16,17,01,22.90
2013,07,16,17,02,22.80
2013,07,16,17,03,22.80
2013,07,16,17,04,22.70
2013,07,16,17,05,22.70
2013,07,16,17,06,22.60
2013,07,16,17,07,22.60
2013,07,16,17,08,22.60
2013,07,16,17,09,22.60
2013,07,16,17,10,22.60
2013,07,16,17,11,22.70
2013,07,16,17,12,22.80
2013,07,16,17,13,22.90
2013,07,16,17,14,22.90
2013,07,16,17,15,22.90
2013,07,16,17,16,23.00
2013,07,16,17,17,23.10
2013,07,16,17,18,23.20
2013,07,16,17,19,23.30